CZ-4B DEB

Satellite information

Favourite Embed

Satellite Type and Status

DEBRISIN ORBIT

Key statistics

Satellite CZ-4B DEB at a glance.

Uptime

6259

Days in orbit

Revolutions

≈ 15.0

Per day

Orbit

SSO

Sun Synchronous Orbit

Inclination

97.8

Latest

Satellite identification and parameters

Extended collection of information and parameters for CZ-4B DEB.

Object identification

Identified? True

Debris? True

Object name: CZ-4B DEB

International designator: 2008-053K

Object number (NORAD): 36289

Object ID (CCSDS): 36289

Country: PEOPLES REPUBLIC OF CHINA (PRC)

Current information (Y/N): Y

RCS size: SMALL

Orbital parameters

Period: 95.73 minutes

Inclination: 97.8496 deg

SMA: 6932.018 km

Apoapsis: 561.023 km

Periapsis: 546.743 km

RAAN: 5.5773 deg

Eccentricy: 0.00103005

Argument of periapsis: 344.3276 deg

Mean anomaly: 15.7629 deg

Mean motion: 15.04226493 rev/day

Mean motion (dot): 0.00004778 rev/day2

B* drag term: 0.00034795291 1/REarth

Two-line elements (TLE)

Creation date: Dec. 11, 2025, 10:54 a.m.

Reference frame: TEME

Reference center: EARTH

Epoch: Dec. 11, 2025, 6:45 a.m. UTC

TLE line 0: 0 CZ-4B DEB

TLE line 1: 1 36289U 08053K 25345.28186984 .00004778 00000-0 34795-3 0 9996

TLE line 2: 2 36289 97.8496 5.5773 0010300 344.3276 15.7629 15.04226493919817

Live tracking on map

Real-time ground track for satellite CZ-4B DEB.

In-orbit conjunctions

A list of the most updated potential collisions computed for object CZ-4B DEB.

Target Orbit TCA Probability of collision Miss distance Type
PEGASUS DEB LEO 2025-08-26 22:31:20 0.0002842681 134.0 (m) DEBRIS
CZ-2C R/B LEO 2024-07-04 05:53:19 0.000112502 255.0 (m) ROCKET BODY

Associated space launch

It was announced that the two satellites had a design life of at least two years, and would be used to probe the space environment, radiation and its effects, record space physical environment parameters, and conduct other related space experiments.

CZ-4B DEB was lifted into orbit during the mission ‘Long March 4B | Shi Jian 6E & 6F’, on board a Long March 4B space rocket.

The launch took place on Oct. 25, 2008, 1:15 a.m. from Launch Complex 9.

For more information about the launch, click the button.

Launch to space Long March 4B | Shi Jian 6E & 6F
Long March 4B | Shi Jian 6E & 6F

Agency: N/A

Status: Launch Successful

Launch date: Oct. 25, 2008, 1:15 a.m. UTC

Rocket: Long March 4B

Launch pad: Launch Complex 9

Location: Taiyuan Satellite Launch Center, People's Republic of China

...

Latest news about this satellite

There are no fresh news available about this satellite. Check back as we update our databases every day.


Newsletter sign-up

Weekly statistics, charts and insights to help you stay on top of the space industry.